Simultaneous Nadir Overpasses (SNOs) Predictions

Prediction of SNOs between METOP-C and LANDSAT-8 Satellite Orbit:

Table of predicted SNOs for the next 14.0 days since TLE Epoch: 12/14/2019
Index Date (METOP-C) Time (METOP-C) Lat,Lon (METOP-C) SZA (METOP-C ) Date (LANDSAT-8) Time (LANDSAT-8) Lat,Lon (LANDSAT-8) SZA (LANDSAT-8 ) Distance(km) Time Diff (sec)
1 12/15/2019 12:33:38 -81.06,-149.78 73.75 12/15/2019 12:34:36 -81.05,-149.80 73.73 0.48 58
2 12/15/2019 13:24:17 81.09, 18.40 106.36 12/15/2019 13:24:01 81.08, 18.26 106.34 2.59 16
3 12/18/2019 08:58:07 81.07, 84.56 106.40 12/18/2019 08:58:16 81.08, 84.61 106.40 0.80 9
4 12/18/2019 09:48:45 -81.10,-107.51 73.54 12/18/2019 09:47:42 -81.10,-107.40 73.55 1.96 63
5 12/21/2019 04:31:55 81.07, 151.10 106.41 12/21/2019 04:32:30 81.07, 150.93 106.41 2.83 35
6 12/21/2019 05:22:33 -81.10, -40.92 73.51 12/21/2019 05:21:56 -81.09, -41.05 73.54 2.19 37
7 12/24/2019 00:05:45 81.06,-142.75 106.32 12/24/2019 00:06:45 81.06,-142.76 106.34 0.26 60
8 12/24/2019 00:56:23 -81.09, 25.30 73.60 12/24/2019 00:56:11 -81.09, 25.28 73.60 0.36 12
9 12/26/2019 20:30:13 -81.07, 91.52 73.74 12/26/2019 20:30:26 -81.08, 91.58 73.73 1.20 13




NCC Satellite Simultaneous Nadir Overpasses (SNOs) Prediction Service
